THORAD AGENA D DEB, 5150

Orbit data source: Space-Track

THORAD AGENA D DEB, 5150 is space debris in SSO originally from a launch on Wed, 08 Apr 1970 UTC launched from the Air Force Western Test Range (AFWTR). Debris objects in space refer to the collection of defunct objects orbiting the Earth. Examples of debris include non-operational satellites, rocket bodies, and fragments generated from explosions, collisions, or faulty payload assembly.

Loading next visibility...
Identifier
5150, 1970-025JT
Orbit
SSO
Country
Flag of USUS
Related business
Manufacturer
Unknown
Mission
Spacecraft
Bus & Motor
Unknown
Mass
Unknown
Launch date (UTC)
1970-04-08 (56 years ago)
Launch vehicle
Unknown
Launch site
Air Force Western Test Range (AFWTR)
Object type
Payload
Rocket body
Debris
Shape & HBR
Unknown shape, 0.1 m
Radar Cross Section
Small (<0.1 m²)

Expand to show TLE details & history
Last TLE update: 12 hours ago

TLE from 12 hours ago
0 THORAD AGENA D DEB
1 05150U 70025JT  25308.85785745  .00002014  00000-0  15115-2 0  9994
2 05150  99.4787  23.4624 0085335 342.7864  17.0406 13.94023770778956
Epoch: 2025-11-04T20:35Z
TLE epoch observation values (Epoch: 2025-11-04T20:35:18.883Z)
Latitude
-0.00005°
Longitude
30.29487°
Altitude
857.952 km
Speed
7.454 km/s
True Right ascension
01h 33m 50s
True Declination
0° 00' 00"
Sunlit
Object was in full shadow at epoch
Visualization orbit readout
Latitude
Unknown
Longitude
Unknown
Altitude
Unknown
Speed
Unknown
Apparent Right ascension
Unknown
Apparent Declination
Unknown
Sunlit
N/A
Visualization observer readout
Local Sidereal Time
04:10:22
Azimuth
Unknown
Elevation
Unknown
Doppler factor
Unknown
Orbital elements
Apogee altitude
974.003 km
Perigee altitude
849.586 km
Semi-major axis
7,289.932 km
Eccentricity
0.00853
Inclination
99.4787°
RAAN
23.4624°
Arg. of periapsis
342.7864°
True anomaly
17.33011°
Mean anomaly
17.0406°
Eccentric anomaly
17.18506°
Mean motion
3.48705 °/min
Orbital period
103.24 mins
BSTAR
0.0015115
Loading maneuver chart data...
Computing Atmospheric mass density...

Documentation

Showing up to 5 results
|